Location: Alsip
(41.6689°N, 87.7387°W)
Time: 14:46:00
(UTC+00:00)

Geosat - Pass Details

Date: 14 July 2020
Orbit: 763 x 766 km, 108.0° (Epoch: 13 August)

Event Time Altitude Azimuth Distance (km) Brightness Sun altitude
Exits shadow 02:55:59 19° 158° (SSE) 1,755 5.3 -14.1°
Maximum altitude 02:59:38 80° 243° (WSW) 782 4.0 -14.6°
Drops below altitude 10° 03:04:40 10° 332° (NNW) 2,310 7.8 -15.2°
Sets 03:06:58 0° 333° (NNW) 3,240 8.9 -15.5°
